• In Belarus
  • List of Countries
  • For 7 days
  • Water Temperature
  • Satellite Maps
  • Weather Map
  • Weather Widgets
  • user-avatar
    Login

    Hourly Weather Banfora

    Today, 20 September, Thursday

    Time Temperature Precipitation Wind Pressure Humidity
    00:00 +26°C° 0 mm 1 mps 733 mmHg 89%
    01:00 +26°C° 0 mm 1 mps 733 mmHg 90%
    02:00 +26°C° 0 mm 1 mps 732 mmHg 91%
    03:00 +24°C° 0 mm 0 mps 732 mmHg 92%
    04:00 +25°C° 0 mm 1 mps 732 mmHg 92%
    05:00 +25°C° 0 mm 1 mps 732 mmHg 93%
    06:00 +25°C° 0 mm 1 mps 733 mmHg 94%
    07:00 +27°C° 0 mm 1 mps 733 mmHg 89%
    08:00 +28°C° 0 mm 1 mps 733 mmHg 84%
    09:00 +29°C° 0 mm 2 mps 734 mmHg 79%
    10:00 +31°C° 0 mm 2 mps 734 mmHg 72%
    11:00 +34°C° 0 mm 2 mps 733 mmHg 64%
    12:00 +35°C° 0 mm 2 mps 733 mmHg 56%
    13:00 +36°C° 0 mm 2 mps 732 mmHg 55%
    14:00 +36°C° 0 mm 2 mps 732 mmHg 53%
    15:00 +36°C° 0 mm 2 mps 731 mmHg 51%
    16:00 +35°C° 0 mm 2 mps 731 mmHg 57%
    17:00 +34°C° 0 mm 2 mps 730 mmHg 63%
    18:00 +31°C° 0 mm 1 mps 730 mmHg 69%
    19:00 +30°C° 0 mm 1 mps 731 mmHg 71%
    20:00 +30°C° 0 mm 1 mps 731 mmHg 74%
    21:00 +29°C° 0 mm 1 mps 732 mmHg 76%
    22:00 +28°C° 0.1 mm 1 mps 732 mmHg 79%
    23:00 +28°C° 0.1 mm 1 mps 732 mmHg 82%

    Tomorrow, 21 September, Friday

    Time Temperature Precipitation Wind Pressure Humidity
    00:00 +27°C° 0.1 mm 1 mps 733 mmHg 84%
    01:00 +27°C° 0.6 mm 1 mps 732 mmHg 87%
    02:00 +26°C° 0.6 mm 1 mps 732 mmHg 90%
    03:00 +26°C° 0.6 mm 2 mps 732 mmHg 93%
    04:00 +26°C° 0.7 mm 2 mps 732 mmHg 94%
    05:00 +25°C° 0.7 mm 2 mps 732 mmHg 94%
    06:00 +25°C° 0.7 mm 2 mps 732 mmHg 95%
    07:00 +26°C° 0 mm 2 mps 732 mmHg 91%
    08:00 +27°C° 0 mm 2 mps 733 mmHg 86%
    09:00 +29°C° 0 mm 3 mps 733 mmHg 82%
    10:00 +30°C° 0 mm 3 mps 733 mmHg 74%
    11:00 +32°C° 0 mm 2 mps 733 mmHg 66%
    12:00 +35°C° 0 mm 2 mps 733 mmHg 59%
    13:00 +35°C° 0 mm 2 mps 732 mmHg 57%
    14:00 +35°C° 0 mm 2 mps 731 mmHg 55%
    15:00 +36°C° 0 mm 2 mps 730 mmHg 53%
    16:00 +34°C° 0.1 mm 1 mps 730 mmHg 59%
    17:00 +32°C° 0.1 mm 1 mps 730 mmHg 64%
    18:00 +29°C° 0.1 mm 0 mps 730 mmHg 70%
    19:00 +28°C° 0.4 mm 0 mps 731 mmHg 73%
    20:00 +27°C° 0.4 mm 0 mps 732 mmHg 76%
    21:00 +26°C° 0.4 mm 0 mps 732 mmHg 79%
    22:00 +28°C° 0.6 mm 1 mps 732 mmHg 81%
    23:00 +27°C° 0.6 mm 1 mps 732 mmHg 84%

    Day after tomorrow, 22 September, Saturday

    Time Temperature Precipitation Wind Pressure Humidity
    00:00 +27°C° 0.6 mm 2 mps 732 mmHg 87%
    01:00 +26°C° 0.3 mm 2 mps 732 mmHg 90%
    02:00 +26°C° 0.3 mm 2 mps 732 mmHg 92%
    03:00 +25°C° 0.3 mm 2 mps 732 mmHg 94%
    04:00 +25°C° 1.2 mm 1 mps 732 mmHg 94%
    05:00 +25°C° 1.2 mm 1 mps 733 mmHg 93%
    06:00 +25°C° 1.2 mm 1 mps 733 mmHg 93%
    07:00 +26°C° 0.6 mm 1 mps 734 mmHg 90%
    08:00 +27°C° 0.6 mm 1 mps 734 mmHg 86%
    09:00 +26°C° 0.6 mm 0 mps 735 mmHg 83%
    10:00 +27°C° 0.2 mm 0 mps 734 mmHg 78%
    11:00 +28°C° 0.2 mm 0 mps 734 mmHg 73%
    12:00 +29°C° 0.2 mm 0 mps 733 mmHg 68%
    13:00 +32°C° 0 mm 1 mps 733 mmHg 64%
    14:00 +32°C° 0 mm 1 mps 732 mmHg 60%
    15:00 +33°C° 0 mm 1 mps 731 mmHg 57%
    16:00 +32°C° 0 mm 1 mps 731 mmHg 61%
    17:00 +31°C° 0 mm 1 mps 731 mmHg 66%
    18:00 +28°C° 0 mm 0 mps 731 mmHg 71%
    19:00 +27°C° 0 mm 0 mps 732 mmHg 73%
    20:00 +26°C° 0 mm 0 mps 732 mmHg 75%
    21:00 +25°C° 0 mm 0 mps 733 mmHg 77%
    22:00 +25°C° 0.3 mm 0 mps 733 mmHg 80%
    23:00 +25°C° 0.3 mm 0 mps 733 mmHg 82%

    23 September, Sunday

    Time Temperature Precipitation Wind Pressure Humidity
    00:00 +24°C° 0.3 mm 0 mps 733 mmHg 85%
    01:00 +26°C° 0.4 mm 1 mps 733 mmHg 88%
    02:00 +25°C° 0.4 mm 1 mps 733 mmHg 90%
    03:00 +25°C° 0.4 mm 1 mps 732 mmHg 92%
    04:00 +25°C° 0.3 mm 1 mps 732 mmHg 93%
    05:00 +25°C° 0.3 mm 1 mps 733 mmHg 94%
    06:00 +25°C° 0.3 mm 1 mps 733 mmHg 94%
    07:00 +26°C° 0 mm 1 mps 733 mmHg 89%
    08:00 +28°C° 0 mm 2 mps 734 mmHg 85%
    09:00 +29°C° 0 mm 2 mps 734 mmHg 80%
    10:00 +31°C° 0.6 mm 2 mps 734 mmHg 72%
    11:00 +33°C° 0.6 mm 1 mps 734 mmHg 64%
    12:00 +34°C° 0.6 mm 1 mps 734 mmHg 57%
    13:00 +35°C° 0 mm 1 mps 733 mmHg 54%
    14:00 +35°C° 0 mm 1 mps 732 mmHg 52%
    15:00 +36°C° 0 mm 1 mps 731 mmHg 49%
    16:00 +34°C° 0 mm 1 mps 731 mmHg 54%
    17:00 +31°C° 0 mm 0 mps 731 mmHg 59%
    18:00 +29°C° 0 mm 0 mps 731 mmHg 65%
    19:00 +31°C° 0.6 mm 1 mps 732 mmHg 68%
    20:00 +30°C° 0.6 mm 1 mps 733 mmHg 71%
    21:00 +29°C° 0.6 mm 1 mps 733 mmHg 74%
    22:00 +28°C° 3.9 mm 1 mps 733 mmHg 80%
    23:00 +27°C° 3.9 mm 1 mps 734 mmHg 86%

    24 September, Monday

    Time Temperature Precipitation Wind Pressure Humidity
    00:00 +26°C° 3.9 mm 2 mps 734 mmHg 92%
    01:00 +26°C° 0 mm 1 mps 733 mmHg 92%
    02:00 +25°C° 0 mm 1 mps 733 mmHg 92%
    03:00 +25°C° 0 mm 1 mps 732 mmHg 92%
    04:00 +25°C° 0 mm 1 mps 732 mmHg 93%
    05:00 +25°C° 0 mm 1 mps 732 mmHg 93%
    06:00 +25°C° 0 mm 1 mps 733 mmHg 94%
    07:00 +26°C° 0 mm 1 mps 733 mmHg 89%
    08:00 +27°C° 0 mm 1 mps 734 mmHg 84%
    09:00 +29°C° 0 mm 1 mps 734 mmHg 79%
    10:00 +31°C° 0 mm 1 mps 734 mmHg 69%
    11:00 +33°C° 0 mm 1 mps 733 mmHg 60%
    12:00 +35°C° 0 mm 1 mps 733 mmHg 50%
    13:00 +35°C° 0 mm 1 mps 732 mmHg 49%
    14:00 +35°C° 0 mm 1 mps 732 mmHg 47%
    15:00 +35°C° 0 mm 1 mps 731 mmHg 46%
    16:00 +34°C° 0 mm 1 mps 731 mmHg 52%
    17:00 +32°C° 0 mm 1 mps 731 mmHg 58%
    18:00 +31°C° 0 mm 1 mps 731 mmHg 64%
    19:00 +30°C° 0 mm 1 mps 732 mmHg 66%
    20:00 +29°C° 0 mm 1 mps 732 mmHg 67%
    21:00 +29°C° 0 mm 1 mps 733 mmHg 69%
    22:00 +28°C° 0.1 mm 1 mps 733 mmHg 71%
    23:00 +28°C° 0.1 mm 1 mps 733 mmHg 73%

    25 September, Tuesday

    Time Temperature Precipitation Wind Pressure Humidity
    00:00 +27°C° 0.1 mm 1 mps 733 mmHg 76%
    01:00 +27°C° 0.2 mm 1 mps 733 mmHg 78%
    02:00 +26°C° 0.2 mm 1 mps 732 mmHg 81%
    03:00 +26°C° 0.2 mm 1 mps 732 mmHg 84%
    04:00 +26°C° 0 mm 1 mps 732 mmHg 86%
    05:00 +25°C° 0 mm 1 mps 733 mmHg 88%
    06:00 +25°C° 0 mm 1 mps 733 mmHg 89%
    07:00 +27°C° 0 mm 1 mps 733 mmHg 85%
    08:00 +28°C° 0 mm 1 mps 734 mmHg 80%
    09:00 +30°C° 0 mm 2 mps 734 mmHg 76%
    10:00 +31°C° 0 mm 2 mps 734 mmHg 69%
    11:00 +33°C° 0 mm 1 mps 733 mmHg 62%
    12:00 +35°C° 0 mm 1 mps 733 mmHg 56%
    13:00 +35°C° 0 mm 1 mps 732 mmHg 53%
    14:00 +36°C° 0 mm 1 mps 731 mmHg 51%
    15:00 +35°C° 0 mm 0 mps 731 mmHg 49%
    16:00 +35°C° 0.1 mm 1 mps 731 mmHg 55%
    17:00 +33°C° 0.1 mm 1 mps 731 mmHg 60%
    18:00 +32°C° 0.1 mm 1 mps 731 mmHg 66%
    19:00 +31°C° 1.2 mm 1 mps 731 mmHg 71%
    20:00 +30°C° 1.2 mm 1 mps 731 mmHg 76%
    21:00 +28°C° 1.2 mm 1 mps 732 mmHg 82%
    22:00 +28°C° 0.9 mm 1 mps 732 mmHg 84%
    23:00 +28°C° 0.9 mm 1 mps 732 mmHg 87%
    Show more